Year,Month,Day,Hour,Minute,Value (Times are PST for temperature in C)
2007,10,13,00,00,6.00
2007,10,13,00,01,6.00
2007,10,13,00,02,5.90
2007,10,13,00,03,5.90
2007,10,13,00,04,5.90
2007,10,13,00,05,5.90
2007,10,13,00,06,5.90
2007,10,13,00,07,5.90
2007,10,13,00,08,5.90
2007,10,13,00,09,5.90
2007,10,13,00,10,5.90
2007,10,13,00,11,5.90
2007,10,13,00,12,5.90
2007,10,13,00,13,5.90
2007,10,13,00,14,5.90
2007,10,13,00,15,5.90
2007,10,13,00,16,5.90
2007,10,13,00,17,5.90
2007,10,13,00,18,5.90
2007,10,13,00,19,5.90
2007,10,13,00,20,5.90
2007,10,13,00,21,5.90
2007,10,13,00,22,5.90
2007,10,13,00,23,5.90
2007,10,13,00,24,5.90
2007,10,13,00,25,5.90
2007,10,13,00,26,5.90
2007,10,13,00,27,5.90
2007,10,13,00,28,5.90
2007,10,13,00,29,5.90
2007,10,13,00,30,5.90
2007,10,13,00,31,5.90
2007,10,13,00,32,5.90
2007,10,13,00,33,5.90
2007,10,13,00,34,5.90
2007,10,13,00,35,5.90
2007,10,13,00,36,5.90
2007,10,13,00,37,5.90
2007,10,13,00,38,5.90
2007,10,13,00,39,5.90
2007,10,13,00,40,5.90
2007,10,13,00,41,5.90
2007,10,13,00,42,5.90
2007,10,13,00,43,5.90
2007,10,13,00,44,5.90
2007,10,13,00,45,5.90
2007,10,13,00,46,5.90
2007,10,13,00,47,5.90
2007,10,13,00,48,5.90
2007,10,13,00,49,5.90
2007,10,13,00,50,5.90
2007,10,13,00,51,5.90
2007,10,13,00,52,5.90
2007,10,13,00,53,5.90
2007,10,13,00,54,5.90
2007,10,13,00,55,5.90
2007,10,13,00,56,5.90
2007,10,13,00,57,5.90
2007,10,13,00,58,5.90
2007,10,13,00,59,5.90
2007,10,13,01,00,5.90
2007,10,13,01,01,5.90
2007,10,13,01,02,5.90
2007,10,13,01,03,5.90
2007,10,13,01,04,5.90
2007,10,13,01,05,5.90
2007,10,13,01,06,5.90
2007,10,13,01,07,5.90
2007,10,13,01,08,5.90
2007,10,13,01,09,5.90
2007,10,13,01,10,5.90
2007,10,13,01,11,5.90
2007,10,13,01,12,5.90
2007,10,13,01,13,5.80
2007,10,13,01,14,5.80
2007,10,13,01,15,5.80
2007,10,13,01,16,5.80
2007,10,13,01,17,5.80
2007,10,13,01,18,5.80
2007,10,13,01,19,5.80
2007,10,13,01,20,5.80
2007,10,13,01,21,5.80
2007,10,13,01,22,5.80
2007,10,13,01,23,5.80
2007,10,13,01,24,5.80
2007,10,13,01,25,5.80
2007,10,13,01,26,5.80
2007,10,13,01,27,5.80
2007,10,13,01,28,5.80
2007,10,13,01,29,5.80
2007,10,13,01,30,5.80
2007,10,13,01,31,5.80
2007,10,13,01,32,5.80
2007,10,13,01,33,5.80
2007,10,13,01,34,5.80
2007,10,13,01,35,5.80
2007,10,13,01,36,5.80
2007,10,13,01,37,5.80
2007,10,13,01,38,5.80
2007,10,13,01,39,5.80
2007,10,13,01,40,5.80
2007,10,13,01,41,5.80
2007,10,13,01,42,5.80
2007,10,13,01,43,5.80
2007,10,13,01,44,5.70
2007,10,13,01,45,5.70
2007,10,13,01,46,5.70
2007,10,13,01,47,5.70
2007,10,13,01,48,5.70
2007,10,13,01,49,5.70
2007,10,13,01,50,5.70
2007,10,13,01,51,5.70
2007,10,13,01,52,5.70
2007,10,13,01,53,5.70
2007,10,13,01,54,5.70
2007,10,13,01,55,5.70
2007,10,13,01,56,5.70
2007,10,13,01,57,5.70
2007,10,13,01,58,5.70
2007,10,13,01,59,5.70
2007,10,13,02,00,5.70
2007,10,13,02,01,5.80
2007,10,13,02,02,5.70
2007,10,13,02,03,5.70
2007,10,13,02,04,5.70
2007,10,13,02,05,5.70
2007,10,13,02,06,5.70
2007,10,13,02,07,5.70
2007,10,13,02,08,5.70
2007,10,13,02,09,5.70
2007,10,13,02,10,5.70
2007,10,13,02,11,5.60
2007,10,13,02,12,5.60
2007,10,13,02,13,5.60
2007,10,13,02,14,5.60
2007,10,13,02,15,5.60
2007,10,13,02,16,5.60
2007,10,13,02,17,5.60
2007,10,13,02,18,5.60
2007,10,13,02,19,5.60
2007,10,13,02,20,5.60
2007,10,13,02,21,5.60
2007,10,13,02,22,5.60
2007,10,13,02,23,5.60
2007,10,13,02,24,5.60
2007,10,13,02,25,5.60
2007,10,13,02,26,5.60
2007,10,13,02,27,5.60
2007,10,13,02,28,5.60
2007,10,13,02,29,5.60
2007,10,13,02,30,5.60
2007,10,13,02,31,5.60
2007,10,13,02,32,5.60
2007,10,13,02,33,5.60
2007,10,13,02,34,5.60
2007,10,13,02,35,5.70
2007,10,13,02,36,5.70
2007,10,13,02,37,5.70
2007,10,13,02,38,5.70
2007,10,13,02,39,5.70
2007,10,13,02,40,5.70
2007,10,13,02,41,5.70
2007,10,13,02,42,5.70
2007,10,13,02,43,5.70
2007,10,13,02,44,5.70
2007,10,13,02,45,5.70
2007,10,13,02,46,5.70
2007,10,13,02,47,5.70
2007,10,13,02,48,5.70
2007,10,13,02,49,5.70
2007,10,13,02,50,5.70
2007,10,13,02,51,5.70
2007,10,13,02,52,5.70
2007,10,13,02,53,5.70
2007,10,13,02,54,5.70
2007,10,13,02,55,5.70
2007,10,13,02,56,5.70
2007,10,13,02,57,5.70
2007,10,13,02,58,5.70
2007,10,13,02,59,5.70
2007,10,13,03,00,5.70
2007,10,13,03,01,5.70
2007,10,13,03,02,5.70
2007,10,13,03,03,5.70
2007,10,13,03,04,5.70
2007,10,13,03,05,5.70
2007,10,13,03,06,5.70
2007,10,13,03,07,5.70
2007,10,13,03,08,5.70
2007,10,13,03,09,5.70
2007,10,13,03,10,5.70
2007,10,13,03,11,5.70
2007,10,13,03,12,5.70
2007,10,13,03,13,5.80
2007,10,13,03,14,5.80
2007,10,13,03,15,5.80
2007,10,13,03,16,5.80
2007,10,13,03,17,5.80
2007,10,13,03,18,5.80
2007,10,13,03,19,5.80
2007,10,13,03,20,5.80
2007,10,13,03,21,5.80
2007,10,13,03,22,5.80
2007,10,13,03,23,5.80
2007,10,13,03,24,5.90
2007,10,13,03,25,5.90
2007,10,13,03,26,5.90
2007,10,13,03,27,5.90
2007,10,13,03,28,5.90
2007,10,13,03,29,5.90
2007,10,13,03,30,5.90
2007,10,13,03,31,6.00
2007,10,13,03,32,6.00
2007,10,13,03,33,6.00
2007,10,13,03,34,6.00
2007,10,13,03,35,6.10
2007,10,13,03,36,6.10
2007,10,13,03,37,6.10
2007,10,13,03,38,6.10
2007,10,13,03,39,6.10
2007,10,13,03,40,6.10
2007,10,13,03,41,6.10
2007,10,13,03,42,6.20
2007,10,13,03,43,6.20
2007,10,13,03,44,6.20
2007,10,13,03,45,6.20
2007,10,13,03,46,6.20
2007,10,13,03,47,6.30
2007,10,13,03,48,6.30
2007,10,13,03,49,6.30
2007,10,13,03,50,6.30
2007,10,13,03,51,6.30
2007,10,13,03,52,6.30
2007,10,13,03,53,6.30
2007,10,13,03,54,6.30
2007,10,13,03,55,6.40
2007,10,13,03,56,6.40
2007,10,13,03,57,6.40
2007,10,13,03,58,6.40
2007,10,13,03,59,6.40
2007,10,13,04,00,6.40
2007,10,13,04,01,6.50
2007,10,13,04,02,6.50
2007,10,13,04,03,6.50
2007,10,13,04,04,6.50
2007,10,13,04,05,6.60
2007,10,13,04,06,6.60
2007,10,13,04,07,6.60
2007,10,13,04,08,6.60
2007,10,13,04,09,6.60
2007,10,13,04,10,6.70
2007,10,13,04,11,6.70
2007,10,13,04,12,6.70
2007,10,13,04,13,6.70
2007,10,13,04,14,6.70
2007,10,13,04,15,6.70
2007,10,13,04,16,6.70
2007,10,13,04,17,6.70
2007,10,13,04,18,6.70
2007,10,13,04,19,6.80
2007,10,13,04,20,6.80
2007,10,13,04,21,6.80
2007,10,13,04,22,6.80
2007,10,13,04,23,6.80
2007,10,13,04,24,6.80
2007,10,13,04,25,6.80
2007,10,13,04,26,6.80
2007,10,13,04,27,6.80
2007,10,13,04,28,6.80
2007,10,13,04,29,6.80
2007,10,13,04,30,6.80
2007,10,13,04,31,6.90
2007,10,13,04,32,6.90
2007,10,13,04,33,6.90
2007,10,13,04,34,6.90
2007,10,13,04,35,6.90
2007,10,13,04,36,6.90
2007,10,13,04,37,6.90
2007,10,13,04,38,6.90
2007,10,13,04,39,6.90
2007,10,13,04,40,6.90
2007,10,13,04,41,6.90
2007,10,13,04,42,6.90
2007,10,13,04,43,6.90
2007,10,13,04,44,6.90
2007,10,13,04,45,6.90
2007,10,13,04,46,6.90
2007,10,13,04,47,6.90
2007,10,13,04,48,6.90
2007,10,13,04,49,6.90
2007,10,13,04,50,7.00
2007,10,13,04,51,7.00
2007,10,13,04,52,7.00
2007,10,13,04,53,7.00
2007,10,13,04,54,7.10
2007,10,13,04,55,7.00
2007,10,13,04,56,7.10
2007,10,13,04,57,7.10
2007,10,13,04,58,7.10
2007,10,13,04,59,7.10
2007,10,13,05,00,7.10
2007,10,13,05,01,7.10
2007,10,13,05,02,7.10
2007,10,13,05,03,7.20
2007,10,13,05,04,7.20
2007,10,13,05,05,7.20
2007,10,13,05,06,7.20
2007,10,13,05,07,7.20
2007,10,13,05,08,7.20
2007,10,13,05,09,7.20
2007,10,13,05,10,7.20
2007,10,13,05,11,7.20
2007,10,13,05,12,7.20
2007,10,13,05,13,7.20
2007,10,13,05,14,7.20
2007,10,13,05,15,7.20
2007,10,13,05,16,7.20
2007,10,13,05,17,7.20
2007,10,13,05,18,7.20
2007,10,13,05,19,7.20
2007,10,13,05,20,7.20
2007,10,13,05,21,7.30
2007,10,13,05,22,7.30
2007,10,13,05,23,7.30
2007,10,13,05,24,7.30
2007,10,13,05,25,7.30
2007,10,13,05,26,7.30
2007,10,13,05,27,7.30
2007,10,13,05,28,7.30
2007,10,13,05,29,7.30
2007,10,13,05,30,7.30
2007,10,13,05,31,7.30
2007,10,13,05,32,7.30
2007,10,13,05,33,7.30
2007,10,13,05,34,7.30
2007,10,13,05,35,7.30
2007,10,13,05,36,7.30
2007,10,13,05,37,7.30
2007,10,13,05,38,7.40
2007,10,13,05,39,7.40
2007,10,13,05,40,7.40
2007,10,13,05,41,7.40
2007,10,13,05,42,7.40
2007,10,13,05,43,7.40
2007,10,13,05,44,7.40
2007,10,13,05,45,7.40
2007,10,13,05,46,7.40
2007,10,13,05,47,7.40
2007,10,13,05,48,7.40
2007,10,13,05,49,7.40
2007,10,13,05,50,7.40
2007,10,13,05,51,7.40
2007,10,13,05,52,7.40
2007,10,13,05,53,7.40
2007,10,13,05,54,7.40
2007,10,13,05,55,7.40
2007,10,13,05,56,7.40
2007,10,13,05,57,7.40
2007,10,13,05,58,7.40
2007,10,13,05,59,7.40
2007,10,13,06,00,7.40
2007,10,13,06,01,7.40
2007,10,13,06,02,7.40
2007,10,13,06,03,7.50
2007,10,13,06,04,7.50
2007,10,13,06,05,7.50
2007,10,13,06,06,7.50
2007,10,13,06,07,7.50
2007,10,13,06,08,7.50
2007,10,13,06,09,7.50
2007,10,13,06,10,7.50
2007,10,13,06,11,7.50
2007,10,13,06,12,7.50
2007,10,13,06,13,7.50
2007,10,13,06,14,7.50
2007,10,13,06,15,7.50
2007,10,13,06,16,7.50
2007,10,13,06,17,7.50
2007,10,13,06,18,7.50
2007,10,13,06,19,7.50
2007,10,13,06,20,7.50
2007,10,13,06,21,7.50
2007,10,13,06,22,7.50
2007,10,13,06,23,7.50
2007,10,13,06,24,7.50
2007,10,13,06,25,7.50
2007,10,13,06,26,7.60
2007,10,13,06,27,7.60
2007,10,13,06,28,7.60
2007,10,13,06,29,7.60
2007,10,13,06,30,7.60
2007,10,13,06,31,7.60
2007,10,13,06,32,7.60
2007,10,13,06,33,7.60
2007,10,13,06,34,7.70
2007,10,13,06,35,7.70
2007,10,13,06,36,7.70
2007,10,13,06,37,7.70
2007,10,13,06,38,7.80
2007,10,13,06,39,7.80
2007,10,13,06,40,7.80
2007,10,13,06,41,7.80
2007,10,13,06,42,7.80
2007,10,13,06,43,7.80
2007,10,13,06,44,7.80
2007,10,13,06,45,7.80
2007,10,13,06,46,7.90
2007,10,13,06,47,7.90
2007,10,13,06,48,7.90
2007,10,13,06,49,7.90
2007,10,13,06,50,7.90
2007,10,13,06,51,7.90
2007,10,13,06,52,7.90
2007,10,13,06,53,8.00
2007,10,13,06,54,8.00
2007,10,13,06,55,8.00
2007,10,13,06,56,8.10
2007,10,13,06,57,8.10
2007,10,13,06,58,8.10
2007,10,13,06,59,8.10
2007,10,13,07,00,8.10
2007,10,13,07,01,8.10
2007,10,13,07,02,8.20
2007,10,13,07,03,8.20
2007,10,13,07,04,8.20
2007,10,13,07,05,8.20
2007,10,13,07,06,8.20
2007,10,13,07,07,8.20
2007,10,13,07,08,8.20
2007,10,13,07,09,8.20
2007,10,13,07,10,8.20
2007,10,13,07,11,8.30
2007,10,13,07,12,8.40
2007,10,13,07,13,8.40
2007,10,13,07,14,8.40
2007,10,13,07,15,8.40
2007,10,13,07,16,8.40
2007,10,13,07,17,8.40
2007,10,13,07,18,8.40
2007,10,13,07,19,8.40
2007,10,13,07,20,8.40
2007,10,13,07,21,8.40
2007,10,13,07,22,8.40
2007,10,13,07,23,8.40
2007,10,13,07,24,8.40
2007,10,13,07,25,8.40
2007,10,13,07,26,8.40
2007,10,13,07,27,8.40
2007,10,13,07,28,8.40
2007,10,13,07,29,8.40
2007,10,13,07,30,8.40
2007,10,13,07,31,8.40
2007,10,13,07,32,8.40
2007,10,13,07,33,8.40
2007,10,13,07,34,8.40
2007,10,13,07,35,8.40
2007,10,13,07,36,8.40
2007,10,13,07,37,8.40
2007,10,13,07,38,8.40
2007,10,13,07,39,8.40
2007,10,13,07,40,8.40
2007,10,13,07,41,8.40
2007,10,13,07,42,8.40
2007,10,13,07,43,8.40
2007,10,13,07,44,8.40
2007,10,13,07,45,8.40
2007,10,13,07,46,8.40
2007,10,13,07,47,8.40
2007,10,13,07,48,8.40
2007,10,13,07,49,8.40
2007,10,13,07,50,8.40
2007,10,13,07,51,8.40
2007,10,13,07,52,8.40
2007,10,13,07,53,8.40
2007,10,13,07,54,8.40
2007,10,13,07,55,8.40
2007,10,13,07,56,8.40
2007,10,13,07,57,8.40
2007,10,13,07,58,8.40
2007,10,13,07,59,8.40
2007,10,13,08,00,8.40
2007,10,13,08,01,8.40
2007,10,13,08,02,8.40
2007,10,13,08,03,8.40
2007,10,13,08,04,8.40
2007,10,13,08,05,8.40
2007,10,13,08,06,8.40
2007,10,13,08,07,8.40
2007,10,13,08,08,8.40
2007,10,13,08,09,8.40
2007,10,13,08,10,8.40
2007,10,13,08,11,8.40
2007,10,13,08,12,8.40
2007,10,13,08,13,8.40
2007,10,13,08,14,8.40
2007,10,13,08,15,8.40
2007,10,13,08,16,8.40
2007,10,13,08,17,8.40
2007,10,13,08,18,8.40
2007,10,13,08,19,8.40
2007,10,13,08,20,8.40
2007,10,13,08,21,8.40
2007,10,13,08,22,8.40
2007,10,13,08,23,8.40
2007,10,13,08,24,8.40
2007,10,13,08,25,8.40
2007,10,13,08,26,8.40
2007,10,13,08,27,8.40
2007,10,13,08,28,8.40
2007,10,13,08,29,8.50
2007,10,13,08,30,8.50
2007,10,13,08,31,8.50
2007,10,13,08,32,8.50
2007,10,13,08,33,8.50
2007,10,13,08,34,8.50
2007,10,13,08,35,8.60
2007,10,13,08,36,8.60
2007,10,13,08,37,8.60
2007,10,13,08,38,8.60
2007,10,13,08,39,8.60
2007,10,13,08,40,8.60
2007,10,13,08,41,8.70
2007,10,13,08,42,8.70
2007,10,13,08,43,8.70
2007,10,13,08,44,8.70
2007,10,13,08,45,8.70
2007,10,13,08,46,8.70
2007,10,13,08,47,8.70
2007,10,13,08,48,8.70
2007,10,13,08,49,8.80
2007,10,13,08,50,8.80
2007,10,13,08,51,8.80
2007,10,13,08,52,8.80
2007,10,13,08,53,8.80
2007,10,13,08,54,8.80
2007,10,13,08,55,8.80
2007,10,13,08,56,8.90
2007,10,13,08,57,8.90
2007,10,13,08,58,8.90
2007,10,13,08,59,8.90
2007,10,13,09,00,8.90
2007,10,13,09,01,8.90
2007,10,13,09,02,9.00
2007,10,13,09,03,9.00
2007,10,13,09,04,9.00
2007,10,13,09,05,9.10
2007,10,13,09,06,9.10
2007,10,13,09,07,9.10
2007,10,13,09,08,9.10
2007,10,13,09,09,9.20
2007,10,13,09,10,9.20
2007,10,13,09,11,9.20
2007,10,13,09,12,9.20
2007,10,13,09,13,9.20
2007,10,13,09,14,9.30
2007,10,13,09,15,9.30
2007,10,13,09,16,9.30
2007,10,13,09,17,9.30
2007,10,13,09,18,9.30
2007,10,13,09,19,9.40
2007,10,13,09,20,9.40
2007,10,13,09,21,9.40
2007,10,13,09,22,9.40
2007,10,13,09,23,9.50
2007,10,13,09,24,9.50
2007,10,13,09,25,9.50
2007,10,13,09,26,9.60
2007,10,13,09,27,9.60
2007,10,13,09,28,9.60
2007,10,13,09,29,9.60
2007,10,13,09,30,9.60
2007,10,13,09,31,9.60
2007,10,13,09,32,9.70
2007,10,13,09,33,9.70
2007,10,13,09,34,9.70
2007,10,13,09,35,9.70
2007,10,13,09,36,9.80
2007,10,13,09,37,9.80
2007,10,13,09,38,9.90
2007,10,13,09,39,9.90
2007,10,13,09,40,9.90
2007,10,13,09,41,9.90
2007,10,13,09,42,10.00
2007,10,13,09,43,10.00
2007,10,13,09,44,10.00
2007,10,13,09,45,10.00
2007,10,13,09,46,10.10
2007,10,13,09,47,10.10
2007,10,13,09,48,10.10
2007,10,13,09,49,10.10
2007,10,13,09,50,10.10
2007,10,13,09,51,10.20
2007,10,13,09,52,10.20
2007,10,13,09,53,10.20
2007,10,13,09,54,10.30
2007,10,13,09,55,10.30
2007,10,13,09,56,10.30
2007,10,13,09,57,10.40
2007,10,13,09,58,10.40
2007,10,13,09,59,10.50
2007,10,13,10,00,10.50
2007,10,13,10,01,10.50
2007,10,13,10,02,10.50
2007,10,13,10,03,10.60
2007,10,13,10,04,10.60
2007,10,13,10,05,10.70
2007,10,13,10,06,10.70
2007,10,13,10,07,10.70
2007,10,13,10,08,10.70
2007,10,13,10,09,10.80
2007,10,13,10,10,10.80
2007,10,13,10,11,10.80
2007,10,13,10,12,10.90
2007,10,13,10,13,10.90
2007,10,13,10,14,10.90
2007,10,13,10,15,11.00
2007,10,13,10,16,11.10
2007,10,13,10,17,11.10
2007,10,13,10,18,11.10
2007,10,13,10,19,11.20
2007,10,13,10,20,11.20
2007,10,13,10,21,11.20
2007,10,13,10,22,11.30
2007,10,13,10,23,11.30
2007,10,13,10,24,11.30
2007,10,13,10,25,11.40
2007,10,13,10,26,11.40
2007,10,13,10,27,11.40
2007,10,13,10,28,11.40
2007,10,13,10,29,11.50
2007,10,13,10,30,11.50
2007,10,13,10,31,11.50
2007,10,13,10,32,11.50
2007,10,13,10,33,11.60
2007,10,13,10,34,11.60
2007,10,13,10,35,11.60
2007,10,13,10,36,11.60
2007,10,13,10,37,11.70
2007,10,13,10,38,11.70
2007,10,13,10,39,11.70
2007,10,13,10,40,11.80
2007,10,13,10,41,11.80
2007,10,13,10,42,11.80
2007,10,13,10,43,11.90
2007,10,13,10,44,11.90
2007,10,13,10,45,11.90
2007,10,13,10,46,12.00
2007,10,13,10,47,12.00
2007,10,13,10,48,12.00
2007,10,13,10,49,12.00
2007,10,13,10,50,12.00
2007,10,13,10,51,12.10
2007,10,13,10,52,12.10
2007,10,13,10,53,12.10
2007,10,13,10,54,12.10
2007,10,13,10,55,12.10
2007,10,13,10,56,12.10
2007,10,13,10,57,12.10
2007,10,13,10,58,12.10
2007,10,13,10,59,12.20
2007,10,13,11,00,12.20
2007,10,13,11,01,12.20
2007,10,13,11,02,12.20
2007,10,13,11,03,12.20
2007,10,13,11,04,12.20
2007,10,13,11,05,12.30
2007,10,13,11,06,12.30
2007,10,13,11,07,12.30
2007,10,13,11,08,12.30
2007,10,13,11,09,12.30
2007,10,13,11,10,12.30
2007,10,13,11,11,12.30
2007,10,13,11,12,12.20
2007,10,13,11,13,12.20
2007,10,13,11,14,12.20
2007,10,13,11,15,12.20
2007,10,13,11,16,12.30
2007,10,13,11,17,12.30
2007,10,13,11,18,12.30
2007,10,13,11,19,12.30
2007,10,13,11,20,12.40
2007,10,13,11,21,12.40
2007,10,13,11,22,12.40
2007,10,13,11,23,12.40
2007,10,13,11,24,12.50
2007,10,13,11,25,12.50
2007,10,13,11,26,12.50
2007,10,13,11,27,12.50
2007,10,13,11,28,12.50
2007,10,13,11,29,12.50
2007,10,13,11,30,12.60
2007,10,13,11,31,12.60
2007,10,13,11,32,12.60
2007,10,13,11,33,12.60
2007,10,13,11,34,12.60
2007,10,13,11,35,12.60
2007,10,13,11,36,12.60
2007,10,13,11,37,12.60
2007,10,13,11,38,12.70
2007,10,13,11,39,12.70
2007,10,13,11,40,12.70
2007,10,13,11,41,12.70
2007,10,13,11,42,12.70
2007,10,13,11,43,12.70
2007,10,13,11,44,12.70
2007,10,13,11,45,12.60
2007,10,13,11,46,12.60
2007,10,13,11,47,12.60
2007,10,13,11,48,12.60
2007,10,13,11,49,12.60
2007,10,13,11,50,12.60
2007,10,13,11,51,12.60
2007,10,13,11,52,12.60
2007,10,13,11,53,12.60
2007,10,13,11,54,12.60
2007,10,13,11,55,12.60
2007,10,13,11,56,12.60
2007,10,13,11,57,12.60
2007,10,13,11,58,12.60
2007,10,13,11,59,12.70
2007,10,13,12,00,12.70
2007,10,13,12,01,12.80
2007,10,13,12,02,12.80
2007,10,13,12,03,12.90
2007,10,13,12,04,13.00
2007,10,13,12,05,13.00
2007,10,13,12,06,13.10
2007,10,13,12,07,13.10
2007,10,13,12,08,13.20
2007,10,13,12,09,13.20
2007,10,13,12,10,13.30
2007,10,13,12,11,13.30
2007,10,13,12,12,13.30
2007,10,13,12,13,13.40
2007,10,13,12,14,13.40
2007,10,13,12,15,13.40
2007,10,13,12,16,13.50
2007,10,13,12,17,13.50
2007,10,13,12,18,13.60
2007,10,13,12,19,13.60
2007,10,13,12,20,13.70
2007,10,13,12,21,13.80
2007,10,13,12,22,13.80
2007,10,13,12,23,13.90
2007,10,13,12,24,14.00
2007,10,13,12,25,14.10
2007,10,13,12,26,14.10
2007,10,13,12,27,14.20
2007,10,13,12,28,14.30
2007,10,13,12,29,14.30
2007,10,13,12,30,14.40
2007,10,13,12,31,14.40
2007,10,13,12,32,14.50
2007,10,13,12,33,14.50
2007,10,13,12,34,14.50
2007,10,13,12,35,14.50
2007,10,13,12,36,14.50
2007,10,13,12,37,14.40
2007,10,13,12,38,14.40
2007,10,13,12,39,14.30
2007,10,13,12,40,14.30
2007,10,13,12,41,14.10
2007,10,13,12,42,14.10
2007,10,13,12,43,14.00
2007,10,13,12,44,14.00
2007,10,13,12,45,13.90
2007,10,13,12,46,13.90
2007,10,13,12,47,13.90
2007,10,13,12,48,13.90
2007,10,13,12,49,14.00
2007,10,13,12,50,14.00
2007,10,13,12,51,14.10
2007,10,13,12,52,14.20
2007,10,13,12,53,14.20
2007,10,13,12,54,14.30
2007,10,13,12,55,14.40
2007,10,13,12,56,14.40
2007,10,13,12,57,14.50
2007,10,13,12,58,14.60
2007,10,13,12,59,14.60
2007,10,13,13,00,14.60
2007,10,13,13,01,14.70
2007,10,13,13,02,14.80
2007,10,13,13,03,14.80
2007,10,13,13,04,14.90
2007,10,13,13,05,14.90
2007,10,13,13,06,15.00
2007,10,13,13,07,15.00
2007,10,13,13,08,15.00
2007,10,13,13,09,15.00
2007,10,13,13,10,15.00
2007,10,13,13,11,15.00
2007,10,13,13,12,15.00
2007,10,13,13,13,15.00
2007,10,13,13,14,15.00
2007,10,13,13,15,15.00
2007,10,13,13,16,15.00
2007,10,13,13,17,15.00
2007,10,13,13,18,15.00
2007,10,13,13,19,15.00
2007,10,13,13,20,15.10
2007,10,13,13,21,15.00
2007,10,13,13,22,15.00
2007,10,13,13,23,15.00
2007,10,13,13,24,15.00
2007,10,13,13,25,15.00
2007,10,13,13,26,15.00
2007,10,13,13,27,15.00
2007,10,13,13,28,15.00
2007,10,13,13,29,15.00
2007,10,13,13,30,15.00
2007,10,13,13,31,15.10
2007,10,13,13,32,15.20
2007,10,13,13,33,15.30
2007,10,13,13,34,15.40
2007,10,13,13,35,15.40
2007,10,13,13,36,15.50
2007,10,13,13,37,15.50
2007,10,13,13,38,15.60
2007,10,13,13,39,15.60
2007,10,13,13,40,15.70
2007,10,13,13,41,15.70
2007,10,13,13,42,15.80
2007,10,13,13,43,15.80
2007,10,13,13,44,15.80
2007,10,13,13,45,15.80
2007,10,13,13,46,15.90
2007,10,13,13,47,15.90
2007,10,13,13,48,15.90
2007,10,13,13,49,15.90
2007,10,13,13,50,15.80
2007,10,13,13,51,15.80
2007,10,13,13,52,15.80
2007,10,13,13,53,15.80
2007,10,13,13,54,15.80
2007,10,13,13,55,15.70
2007,10,13,13,56,15.70
2007,10,13,13,57,15.60
2007,10,13,13,58,15.60
2007,10,13,13,59,15.60
2007,10,13,14,00,15.70
2007,10,13,14,01,15.70
2007,10,13,14,02,15.70
2007,10,13,14,03,15.70
2007,10,13,14,04,15.80
2007,10,13,14,05,15.80
2007,10,13,14,06,15.80
2007,10,13,14,07,15.80
2007,10,13,14,08,15.80
2007,10,13,14,09,15.80
2007,10,13,14,10,15.80
2007,10,13,14,11,15.80
2007,10,13,14,12,15.80
2007,10,13,14,13,15.80
2007,10,13,14,14,15.80
2007,10,13,14,15,15.90
2007,10,13,14,16,15.90
2007,10,13,14,17,15.90
2007,10,13,14,18,15.90
2007,10,13,14,19,15.90
2007,10,13,14,20,15.90
2007,10,13,14,21,15.90
2007,10,13,14,22,15.90
2007,10,13,14,23,15.90
2007,10,13,14,24,16.00
2007,10,13,14,25,16.10
2007,10,13,14,26,16.10
2007,10,13,14,27,16.10
2007,10,13,14,28,16.10
2007,10,13,14,29,16.10
2007,10,13,14,30,16.10
2007,10,13,14,31,16.10
2007,10,13,14,32,16.00
2007,10,13,14,33,15.90
2007,10,13,14,34,15.90
2007,10,13,14,35,15.90
2007,10,13,14,36,15.80
2007,10,13,14,37,15.80
2007,10,13,14,38,15.70
2007,10,13,14,39,15.70
2007,10,13,14,40,15.60
2007,10,13,14,41,15.60
2007,10,13,14,42,15.60
2007,10,13,14,43,15.50
2007,10,13,14,44,15.50
2007,10,13,14,45,15.40
2007,10,13,14,46,15.40
2007,10,13,14,47,15.40
2007,10,13,14,48,15.40
2007,10,13,14,49,15.40
2007,10,13,14,50,15.50
2007,10,13,14,51,15.50
2007,10,13,14,52,15.60
2007,10,13,14,53,15.60
2007,10,13,14,54,15.70
2007,10,13,14,55,15.80
2007,10,13,14,56,15.80
2007,10,13,14,57,15.80
2007,10,13,14,58,15.90
2007,10,13,14,59,15.90
2007,10,13,15,00,15.90
2007,10,13,15,01,15.90
2007,10,13,15,02,16.00
2007,10,13,15,03,16.00
2007,10,13,15,04,16.10
2007,10,13,15,05,16.10
2007,10,13,15,06,16.10
2007,10,13,15,07,16.10
2007,10,13,15,08,16.10
2007,10,13,15,09,16.10
2007,10,13,15,10,16.10
2007,10,13,15,11,16.10
2007,10,13,15,12,16.10
2007,10,13,15,13,16.10
2007,10,13,15,14,16.20
2007,10,13,15,15,16.10
2007,10,13,15,16,16.10
2007,10,13,15,17,16.10
2007,10,13,15,18,16.10
2007,10,13,15,19,16.00
2007,10,13,15,20,16.00
2007,10,13,15,21,16.00
2007,10,13,15,22,16.00
2007,10,13,15,23,15.90
2007,10,13,15,24,15.90
2007,10,13,15,25,15.90
2007,10,13,15,26,15.90
2007,10,13,15,27,15.90
2007,10,13,15,28,15.90
2007,10,13,15,29,15.80
2007,10,13,15,30,15.80
2007,10,13,15,31,15.80
2007,10,13,15,32,15.70
2007,10,13,15,33,15.70
2007,10,13,15,34,15.70
2007,10,13,15,35,15.70
2007,10,13,15,36,15.80
2007,10,13,15,37,15.80
2007,10,13,15,38,15.80
2007,10,13,15,39,15.80
2007,10,13,15,40,15.80
2007,10,13,15,41,15.80
2007,10,13,15,42,15.80
2007,10,13,15,43,15.70
2007,10,13,15,44,15.70
2007,10,13,15,45,15.70
2007,10,13,15,46,15.60
2007,10,13,15,47,15.60
2007,10,13,15,48,15.60
2007,10,13,15,49,15.60
2007,10,13,15,50,15.70
2007,10,13,15,51,15.70
2007,10,13,15,52,15.70
2007,10,13,15,53,15.70
2007,10,13,15,54,15.80
2007,10,13,15,55,15.80
2007,10,13,15,56,15.80
2007,10,13,15,57,15.90
2007,10,13,15,58,15.90
2007,10,13,15,59,15.90
2007,10,13,16,00,15.90
2007,10,13,16,01,16.00
2007,10,13,16,02,16.00
2007,10,13,16,03,16.10
2007,10,13,16,04,16.10
2007,10,13,16,05,16.20
2007,10,13,16,06,16.20
2007,10,13,16,07,16.20
2007,10,13,16,08,16.20
2007,10,13,16,09,16.30
2007,10,13,16,10,16.30
2007,10,13,16,11,16.30
2007,10,13,16,12,16.30
2007,10,13,16,13,16.30
2007,10,13,16,14,16.30
2007,10,13,16,15,16.30
2007,10,13,16,16,16.30
2007,10,13,16,17,16.30
2007,10,13,16,18,16.30
2007,10,13,16,19,16.30
2007,10,13,16,20,16.30
2007,10,13,16,21,16.20
2007,10,13,16,22,16.20
2007,10,13,16,23,16.10
2007,10,13,16,24,16.10
2007,10,13,16,25,16.10
2007,10,13,16,26,16.00
2007,10,13,16,27,16.00
2007,10,13,16,28,15.90
2007,10,13,16,29,15.80
2007,10,13,16,30,15.80
2007,10,13,16,31,15.80
2007,10,13,16,32,15.70
2007,10,13,16,33,15.70
2007,10,13,16,34,15.70
2007,10,13,16,35,15.70
2007,10,13,16,36,15.70
2007,10,13,16,37,15.70
2007,10,13,16,38,15.70
2007,10,13,16,39,15.70
2007,10,13,16,40,15.70
2007,10,13,16,41,15.60
2007,10,13,16,42,15.60
2007,10,13,16,43,15.60
2007,10,13,16,44,15.60
2007,10,13,16,45,15.60
2007,10,13,16,46,15.60
2007,10,13,16,47,15.60
2007,10,13,16,48,15.60
2007,10,13,16,49,15.50
2007,10,13,16,50,15.40
2007,10,13,16,51,15.40
2007,10,13,16,52,15.30
2007,10,13,16,53,15.30
2007,10,13,16,54,15.30
2007,10,13,16,55,15.20
2007,10,13,16,56,15.10
2007,10,13,16,57,15.00
2007,10,13,16,58,15.00
2007,10,13,16,59,15.00
2007,10,13,17,00,15.00
2007,10,13,17,01,15.00
2007,10,13,17,02,15.00
2007,10,13,17,03,15.00
2007,10,13,17,04,14.90
2007,10,13,17,05,14.90
2007,10,13,17,06,14.90
2007,10,13,17,07,14.80
2007,10,13,17,08,14.80
2007,10,13,17,09,14.80
2007,10,13,17,10,14.80
2007,10,13,17,11,14.80
2007,10,13,17,12,14.70
2007,10,13,17,13,14.70
2007,10,13,17,14,14.70
2007,10,13,17,15,14.60
2007,10,13,17,16,14.60
2007,10,13,17,17,14.60
2007,10,13,17,18,14.60
2007,10,13,17,19,14.60
2007,10,13,17,20,14.60
2007,10,13,17,21,14.60
2007,10,13,17,22,14.60
2007,10,13,17,23,14.50
2007,10,13,17,24,14.50
2007,10,13,17,25,14.50
2007,10,13,17,26,14.40
2007,10,13,17,27,14.40
2007,10,13,17,28,14.40
2007,10,13,17,29,14.30
2007,10,13,17,30,14.30
2007,10,13,17,31,14.30
2007,10,13,17,32,14.30
2007,10,13,17,33,14.30
2007,10,13,17,34,14.30
2007,10,13,17,35,14.30
2007,10,13,17,36,14.20
2007,10,13,17,37,14.20
2007,10,13,17,38,14.20
2007,10,13,17,39,14.20
2007,10,13,17,40,14.10
2007,10,13,17,41,14.10
2007,10,13,17,42,14.00
2007,10,13,17,43,13.90
2007,10,13,17,44,13.90